DW2537 Weather Reports


Display with metric or nautical units.
time (UTC)temp
F
wind
direction
speed
MPH
gust
MPH
rain 1hr
in
rain 24hr
in
rain mn
in
humidity
%
barometer
mb
20260831223040 83 0 0.0 3.0 0.00 0.00 0.00 77 1018.2
20260831222521 83 0 0.0 4.0 0.00 0.00 0.00 77 1018.2
20260831222024 83 150 0.0 4.0 0.00 0.00 0.00 76 1018.2
20260831221548 83 127 1.0 3.0 0.00 0.00 0.00 76 1018.3
20260831221023 84 61 0.0 2.0 0.00 0.00 0.00 75 1018.4
20260831220525 84 69 0.0 3.0 0.00 0.00 0.00 74 1018.4
20260831220040 84 152 1.0 4.0 0.00 0.00 0.00 73 1018.4
20260831215526 84 106 1.0 4.0 0.00 0.00 0.00 73 1018.2
20260831215021 84 73 0.0 5.0 0.00 0.00 0.00 73 1018.3
20260831214544 84 0 0.0 6.0 0.00 0.00 0.00 73 1018.3
20260831214023 85 72 2.0 6.0 0.00 0.00 0.00 73 1018.2
20260831213520 85 111 1.0 5.0 0.00 0.00 0.00 72 1018.2
20260831213051 85 70 0.0 4.0 0.00 0.00 0.00 73 1018.1
20260831212523 85 0 0.0 2.0 0.00 0.00 0.00 72 1018.0
20260831212025 85 0 0.0 2.0 0.00 0.00 0.00 72 1018.1
20260831211552 85 0 0.0 1.0 0.00 0.00 0.00 72 1018.0
20260831211022 85 0 0.0 1.0 0.00 0.00 0.00 69 1018.0
20260831210526 85 0 0.0 1.0 0.00 0.00 0.00 72 1018.1
20260831210041 85 0 0.0 1.0 0.00 0.00 0.00 72 1018.0
20260831205520 86 237 0.0 2.0 0.00 0.00 0.00 73 1018.1
20260831205020 86 0 0.0 2.0 0.00 0.00 0.00 72 1018.1
20260831204541 86 298 0.0 3.0 0.00 0.00 0.00 70 1018.0
20260831204021 87 0 0.0 4.0 0.00 0.00 0.00 69 1018.0
20260831203520 87 0 1.0 4.0 0.00 0.00 0.00 68 1018.0
20260831203043 86 79 0.0 3.0 0.00 0.00 0.00 70 1018.1
20260831202526 86 0 0.0 3.0 0.00 0.00 0.00 71 1018.1
20260831202023 86 131 1.0 3.0 0.00 0.00 0.00 70 1018.2
20260831201542 86 294 0.0 2.0 0.00 0.00 0.00 72 1018.2
20260831201024 86 246 0.0 4.0 0.00 0.00 0.00 71 1018.2
20260831200523 85 155 0.0 4.0 0.00 0.00 0.00 68 1018.2
20260831200041 85 75 1.0 4.0 0.00 0.00 0.00 70 1018.1
20260831195519 85 0 1.0 3.0 0.00 0.00 0.00 71 1018.2
20260831195020 86 32 0.0 3.0 0.00 0.00 0.00 72 1018.3
20260831194615 86 0 1.0 2.0 0.00 0.00 0.00 72 1018.3
20260831194024 86 65 1.0 2.0 0.00 0.00 0.00 70 1018.2
20260831193520 86 0 0.0 3.0 0.00 0.00 0.00 71 1018.2
20260831193041 85 0 0.0 3.0 0.00 0.00 0.00 70 1018.3
20260831192523 85 0 0.0 2.0 0.00 0.00 0.00 72 1018.4
20260831192018 85 192 0.0 1.0 0.00 0.00 0.00 72 1018.6
20260831191542 86 204 0.0 2.0 0.00 0.00 0.00 70 1018.7
20260831191018 86 0 0.0 4.0 0.00 0.00 0.00 72 1018.7
20260831190521 86 0 0.0 4.0 0.00 0.00 0.00 69 1018.8
20260831190041 86 65 1.0 4.0 0.00 0.00 0.00 68 1018.7
20260831185520 86 165 0.0 2.0 0.00 0.00 0.00 67 1018.8
20260831185024 85 0 0.0 3.0 0.00 0.00 0.00 70 1018.9
20260831184547 85 62 1.0 4.0 0.00 0.00 0.00 70 1019.1
20260831184023 85 0 0.0 4.0 0.00 0.00 0.00 72 1019.1
20260831183526 85 161 0.0 4.0 0.00 0.00 0.00 70 1019.1
20260831183042 85 50 0.0 4.0 0.00 0.00 0.00 71 1019.1
20260831182521 85 58 0.0 3.0 0.00 0.00 0.00 66 1019.1
20260831182021 85 0 0.0 2.0 0.00 0.00 0.00 67 1019.0
20260831181543 85 0 0.0 2.0 0.00 0.00 0.00 71 1019.0
20260831181018 85 0 0.0 3.0 0.00 0.00 0.00 69 1018.8
20260831180525 85 64 0.0 3.0 0.00 0.00 0.00 70 1018.9
20260831180041 85 283 1.0 3.0 0.00 0.00 0.00 68 1019.0
20260831175523 85 0 0.0 3.0 0.00 0.00 0.00 68 1019.0
20260831175024 85 155 1.0 3.0 0.00 0.00 0.00 66 1019.0
20260831174549 85 0 1.0 4.0 0.00 0.00 0.00 67 1019.0
20260831174026 86 168 2.0 4.0 0.00 0.00 0.00 66 1019.1
20260831173520 86 121 1.0 4.0 0.00 0.00 0.00 67 1019.1
20260831173045 86 0 0.0 4.0 0.00 0.00 0.00 69 1019.2
20260831172519 86 0 1.0 7.0 0.00 0.00 0.00 67 1019.3
20260831172020 86 128 1.0 8.0 0.00 0.00 0.00 69 1019.5
20260831171544 86 80 2.0 8.0 0.00 0.00 0.00 68 1019.5
20260831171023 86 127 1.0 4.0 0.00 0.00 0.00 67 1019.5
20260831170527 86 0 1.0 7.0 0.00 0.00 0.00 69 1019.5
20260831170111 86 0 1.0 7.0 0.00 0.00 0.00 69 1019.5
20260831165523 85 90 1.0 5.0 0.00 0.00 0.00 69 1019.7
20260831165019 85 269 0.0 5.0 0.00 0.00 0.00 69 1019.7
20260831164540 85 207 2.0 5.0 0.00 0.00 0.00 69 1019.7
20260831164018 86 167 1.0 5.0 0.00 0.00 0.00 67 1019.8
20260831163518 85 95 1.0 5.0 0.00 0.00 0.00 71 1019.7
20260831163042 85 163 0.0 4.0 0.00 0.00 0.00 71 1019.8
20260831162528 84 198 1.0 4.0 0.00 0.00 0.00 72 1019.9
20260831162026 84 25 1.0 4.0 0.00 0.00 0.00 71 1019.9
20260831161543 84 0 1.0 7.0 0.00 0.00 0.00 71 1020.0
20260831161020 83 0 1.0 7.0 0.00 0.00 0.00 70 1019.8
20260831160518 83 184 2.0 6.0 0.00 0.00 0.00 72 1019.9
20260831160042 83 163 2.0 6.0 0.00 0.00 0.00 73 1019.9
20260831155521 83 49 1.0 5.0 0.00 0.00 0.00 73 1019.9
20260831155022 83 87 1.0 5.0 0.00 0.00 0.00 74 1020.0
20260831154619 82 158 1.0 6.0 0.00 0.00 0.00 76 1019.9
20260831154026 82 0 1.0 6.0 0.00 0.00 0.00 74 1019.9
20260831153525 82 0 1.0 6.0 0.00 0.00 0.00 74 1019.9
20260831153046 82 84 1.0 7.0 0.00 0.00 0.00 75 1019.9
20260831152523 82 175 2.0 7.0 0.00 0.00 0.00 75 1019.8
20260831152024 82 164 1.0 7.0 0.00 0.00 0.00 75 1019.8
20260831151541 82 148 1.0 5.0 0.00 0.00 0.00 76 1019.8
20260831151024 82 0 1.0 7.0 0.00 0.00 0.00 77 1019.9
20260831150525 81 9 1.0 7.0 0.00 0.00 0.00 77 1020.0
20260831150041 81 53 1.0 6.0 0.00 0.00 0.00 74 1020.0
20260831145526 81 11 0.0 9.0 0.00 0.00 0.00 74 1020.0
20260831145021 81 123 1.0 9.0 0.00 0.00 0.00 76 1019.9
20260831144540 81 67 1.0 7.0 0.00 0.00 0.00 77 1019.9
20260831144025 81 31 2.0 11.0 0.00 0.00 0.00 77 1020.0
20260831143524 81 17 2.0 11.0 0.00 0.00 0.00 77 1019.9
20260831143044 81 94 1.0 7.0 0.00 0.00 0.00 80 1019.9
20260831142524 80 46 0.0 8.0 0.00 0.00 0.00 80 1019.8
20260831142027 80 0 1.0 8.0 0.00 0.00 0.00 79 1019.8
20260831141541 80 256 0.0 7.0 0.00 0.00 0.00 79 1019.8
20260831141023 80 53 2.0 7.0 0.00 0.00 0.00 78 1019.8
20260831140526 80 0 2.0 7.0 0.00 0.00 0.00 79 1019.7
20260831140040 80 84 1.0 6.0 0.00 0.00 0.00 80 1019.7
20260831135521 79 36 2.0 7.0 0.00 0.00 0.00 80 1019.8
20260831135021 79 54 2.0 7.0 0.00 0.00 0.00 77 1019.9
20260831134545 79 103 0.0 7.0 0.00 0.00 0.00 82 1019.9
20260831134020 79 71 1.0 6.0 0.00 0.00 0.00 82 1020.0
20260831133524 79 39 1.0 7.0 0.00 0.00 0.00 83 1019.9
20260831133049 79 52 1.0 7.0 0.00 0.00 0.00 83 1019.9
20260831132523 79 97 2.0 7.0 0.00 0.00 0.00 83 1020.0
20260831132026 79 30 1.0 8.0 0.00 0.00 0.00 84 1019.9
20260831131544 79 72 3.0 8.0 0.00 0.00 0.00 85 1019.9
20260831131021 78 71 0.0 6.0 0.00 0.00 0.00 86 1019.8
20260831130522 78 42 1.0 6.0 0.00 0.00 0.00 87 1019.7
20260831130045 78 101 0.0 7.0 0.00 0.00 0.00 88 1019.8
20260831125521 77 0 1.0 9.0 0.00 0.00 0.00 88 1019.8
20260831125022 77 56 1.0 9.0 0.00 0.00 0.00 89 1019.7
20260831124542 77 15 2.0 8.0 0.00 0.00 0.00 89 1019.5
20260831124027 77 29 2.0 6.0 0.00 0.00 0.00 89 1019.6
20260831123523 77 34 0.0 6.0 0.00 0.00 0.00 90 1019.7
20260831123045 76 78 1.0 5.0 0.00 0.00 0.00 91 1019.7
20260831122525 76 92 0.0 3.0 0.00 0.00 0.00 92 1019.7
20260831122023 75 0 0.0 3.0 0.00 0.00 0.00 93 1019.6
20260831121541 75 65 0.0 2.0 0.00 0.00 0.00 94 1019.6
20260831121020 74 0 0.0 2.0 0.00 0.00 0.00 94 1019.5
20260831120521 73 0 0.0 2.0 0.00 0.00 0.00 94 1019.6
20260831120047 73 77 0.0 1.0 0.00 0.00 0.00 94 1019.6
20260831115521 72 0 0.0 1.0 0.00 0.00 0.00 94 1019.6
20260831115023 72 163 0.0 1.0 0.00 0.00 0.00 94 1019.5
20260831114544 72 0 0.0 1.0 0.00 0.00 0.00 95 1019.5
20260831114027 71 0 0.0 1.0 0.00 0.00 0.00 95 1019.4
20260831113523 71 0 0.0 0.0 0.00 0.00 0.00 95 1019.4
20260831113048 71 0 0.0 0.0 0.00 0.00 0.00 95 1019.2
20260831112521 71 0 0.0 0.0 0.00 0.00 0.00 95 1019.1
20260831112024 71 0 0.0 0.0 0.00 0.00 0.00 95 1019.0
20260831111539 71 0 0.0 0.0 0.00 0.00 0.00 95 1018.9
20260831111022 71 0 0.0 0.0 0.00 0.00 0.00 95 1018.9
20260831110520 71 0 0.0 0.0 0.00 0.00 0.00 95 1019.0
20260831110040 71 0 0.0 0.0 0.00 0.00 0.00 95 1019.0
20260831105520 70 0 0.0 0.0 0.00 0.00 0.00 95 1018.9
20260831105025 70 0 0.0 0.0 0.00 0.00 0.00 95 1018.8
20260831104547 70 0 0.0 0.0 0.00 0.00 0.00 95 1018.8
20260831104024 70 0 0.0 0.0 0.00 0.00 0.00 95 1018.8
20260831103524 70 0 0.0 0.0 0.00 0.00 0.00 95 1018.7
20260831103057 70 0 0.0 0.0 0.00 0.00 0.00 95 1018.7
20260831102524 70 0 0.0 1.0 0.00 0.00 0.00 94 1018.7
20260831102023 71 0 0.0 1.0 0.00 0.00 0.00 94 1018.7
20260831101546 71 0 0.0 1.0 0.00 0.00 0.00 94 1018.6
20260831101020 71 0 0.0 1.0 0.00 0.00 0.00 94 1018.6
20260831100532 71 0 0.0 2.0 0.00 0.00 0.00 94 1018.6
20260831100041 71 0 0.0 2.0 0.00 0.00 0.00 95 1018.6
20260831095519 71 0 0.0 1.0 0.00 0.00 0.00 94 1018.6
20260831095022 71 0 0.0 0.0 0.00 0.00 0.00 94 1018.4
20260831094545 71 0 0.0 1.0 0.00 0.00 0.00 94 1018.3
20260831094024 71 0 0.0 1.0 0.00 0.00 0.00 94 1018.3
20260831093523 71 163 0.0 1.0 0.00 0.00 0.00 94 1018.3
20260831093047 71 0 0.0 1.0 0.00 0.00 0.00 94 1018.3
20260831092524 71 163 0.0 1.0 0.00 0.00 0.00 94 1018.3
20260831092019 71 0 0.0 0.0 0.00 0.00 0.00 94 1018.3
20260831091543 71 0 0.0 0.0 0.00 0.00 0.00 94 1018.2
20260831091020 71 0 0.0 0.0 0.00 0.00 0.00 94 1018.2
20260831090520 71 0 0.0 0.0 0.00 0.00 0.00 94 1018.2
20260831090056 71 0 0.0 0.0 0.00 0.00 0.00 94 1018.2
20260831085519 71 0 0.0 0.0 0.00 0.00 0.00 94 1018.2
20260831085022 71 0 0.0 0.0 0.00 0.00 0.00 94 1018.3
20260831084545 71 0 0.0 0.0 0.00 0.00 0.00 94 1018.3
20260831084019 71 0 0.0 2.0 0.00 0.00 0.00 94 1018.3
20260831083520 71 0 0.0 2.0 0.00 0.00 0.00 94 1018.3
20260831083047 71 163 0.0 1.0 0.00 0.00 0.00 94 1018.2
20260831082524 71 0 0.0 0.0 0.00 0.00 0.00 94 1018.4
20260831082023 71 0 0.0 1.0 0.00 0.00 0.00 94 1018.4
20260831081541 71 0 0.0 1.0 0.00 0.00 0.00 94 1018.4
20260831081024 71 0 0.0 1.0 0.00 0.00 0.00 94 1018.4
20260831080526 71 0 0.0 2.0 0.00 0.00 0.00 94 1018.5
20260831080053 71 0 0.0 2.0 0.00 0.00 0.00 94 1018.5
20260831075520 71 0 0.0 0.0 0.00 0.00 0.00 94 1018.6
20260831075024 71 0 0.0 0.0 0.00 0.00 0.00 94 1018.5
20260831074548 70 0 0.0 0.0 0.00 0.00 0.00 94 1018.3
20260831074025 71 0 0.0 0.0 0.00 0.00 0.00 94 1018.2
20260831073524 70 0 0.0 0.0 0.00 0.00 0.00 94 1018.4
20260831073042 71 0 0.0 0.0 0.00 0.00 0.00 94 1018.4
20260831072523 70 0 0.0 0.0 0.00 0.00 0.00 94 1018.4
20260831072025 71 0 0.0 0.0 0.00 0.00 0.00 94 1018.4
20260831071540 71 0 0.0 0.0 0.00 0.00 0.00 93 1018.3
20260831071020 71 0 0.0 0.0 0.00 0.00 0.00 93 1018.2
20260831070519 71 0 0.0 0.0 0.00 0.00 0.00 93 1018.3
20260831070041 71 0 0.0 0.0 0.00 0.00 0.00 93 1018.3
20260831065520 71 0 0.0 0.0 0.00 0.00 0.00 93 1018.4
20260831065020 71 0 0.0 0.0 0.00 0.00 0.00 93 1018.4
20260831064548 71 0 0.0 0.0 0.00 0.00 0.00 93 1018.4
20260831064026 71 0 0.0 0.0 0.00 0.00 0.00 93 1018.4
20260831063523 71 0 0.0 2.0 0.00 0.00 0.00 92 1018.6
20260831063042 71 0 0.0 2.0 0.00 0.00 0.00 92 1018.6
20260831062524 71 163 0.0 2.0 0.00 0.00 0.00 92 1018.6
20260831062025 71 0 0.0 0.0 0.00 0.00 0.00 92 1018.6
20260831061542 72 0 0.0 0.0 0.00 0.00 0.00 92 1018.6
20260831061022 72 0 0.0 0.0 0.00 0.00 0.00 92 1018.7
20260831060519 72 0 0.0 0.0 0.00 0.00 0.00 91 1018.7
20260831060045 72 0 0.0 0.0 0.00 0.00 0.00 91 1018.8
20260831055522 72 0 0.0 0.0 0.00 0.00 0.00 91 1018.9
20260831055020 72 0 0.0 0.0 0.00 0.00 0.00 91 1018.9
20260831054541 72 0 0.0 0.0 0.00 0.00 0.00 91 1018.8
20260831054023 72 0 0.0 0.0 0.00 0.00 0.00 91 1018.9
20260831053521 72 0 0.0 0.0 0.00 0.00 0.00 91 1018.9
20260831053048 72 0 0.0 0.0 0.00 0.00 0.00 90 1018.9
20260831052523 73 0 0.0 0.0 0.00 0.00 0.00 90 1018.9
20260831052022 73 0 0.0 0.0 0.00 0.00 0.00 90 1018.9
20260831051542 73 0 0.0 0.0 0.00 0.00 0.00 90 1018.9
20260831051023 73 0 0.0 0.0 0.00 0.00 0.00 90 1018.9
20260831050518 73 0 0.0 0.0 0.00 0.00 0.00 90 1018.7
20260831050045 73 0 0.0 0.0 0.00 0.00 0.00 90 1018.7
20260831045521 73 0 0.0 0.0 0.00 0.00 0.00 90 1018.7
20260831045021 73 0 0.0 1.0 0.00 0.00 0.00 90 1018.8
20260831044544 73 0 0.0 1.0 0.00 0.00 0.00 90 1018.9
20260831044020 73 0 0.0 1.0 0.00 0.00 0.00 90 1018.9
20260831043524 73 0 0.0 1.0 0.00 0.00 0.00 90 1018.9
20260831043045 73 0 0.0 1.0 0.00 0.00 0.00 90 1018.9
20260831042524 73 0 0.0 1.0 0.00 0.00 0.00 89 1018.9
20260831042023 73 0 0.0 1.0 0.00 0.00 0.00 89 1018.9
20260831041559 73 0 0.0 0.0 0.00 0.00 0.00 89 1019.1
20260831041020 73 0 0.0 0.0 0.00 0.00 0.00 89 1019.0
20260831040523 73 0 0.0 0.0 0.00 0.00 0.00 88 1019.0
20260831040043 73 0 0.0 0.0 0.00 0.00 0.00 88 1019.0
20260831035524 74 0 0.0 0.0 0.00 0.00 0.00 88 1018.9
20260831035023 74 0 0.0 0.0 0.00 0.00 0.00 87 1018.9
20260831034542 74 0 0.0 0.0 0.00 0.00 0.00 87 1018.9
20260831034018 74 0 0.0 1.0 0.00 0.00 0.00 87 1019.0
20260831033521 74 0 0.0 2.0 0.00 0.00 0.00 87 1019.0
20260831033043 74 163 0.0 2.0 0.00 0.00 0.00 87 1019.1
20260831032520 74 163 0.0 1.0 0.00 0.00 0.00 87 1018.9
20260831032025 74 0 0.0 0.0 0.00 0.00 0.00 86 1018.9
20260831031545 74 0 0.0 0.0 0.00 0.00 0.00 86 1018.9
20260831031023 75 0 0.0 1.0 0.00 0.00 0.00 85 1018.9
20260831030524 75 0 0.0 1.0 0.00 0.00 0.00 85 1018.9
20260831030044 75 0 0.0 1.0 0.00 0.00 0.00 85 1019.0
20260831025524 75 163 0.0 0.0 0.00 0.00 0.00 85 1019.1
20260831025022 75 0 0.0 1.0 0.00 0.00 0.00 84 1019.1
20260831024550 75 0 0.0 1.0 0.00 0.00 0.00 84 1019.2
20260831024019 76 0 0.0 1.0 0.00 0.00 0.00 83 1019.3
20260831023520 76 0 0.0 1.0 0.00 0.00 0.00 83 1019.4
20260831023041 76 0 0.0 0.0 0.00 0.00 0.00 83 1019.5
20260831022527 76 0 0.0 2.0 0.00 0.00 0.00 82 1019.6
20260831022024 77 0 0.0 2.0 0.00 0.00 0.00 82 1019.5
20260831021548 77 0 0.0 2.0 0.00 0.00 0.00 82 1019.5
20260831021027 77 166 0.0 1.0 0.00 0.00 0.00 82 1019.4
20260831020524 77 0 0.0 1.0 0.00 0.00 0.00 82 1019.4
20260831020044 77 0 0.0 1.0 0.00 0.00 0.00 81 1019.5
20260831015518 77 0 0.0 1.0 0.00 0.00 0.00 81 1019.5
20260831015022 78 0 0.0 2.0 0.00 0.00 0.00 80 1019.4
20260831014542 78 0 0.0 2.0 0.00 0.00 0.00 80 1019.4
20260831014024 78 0 0.0 4.0 0.00 0.00 0.00 79 1019.4
20260831013520 78 0 0.0 4.0 0.00 0.00 0.00 79 1019.4
20260831013041 79 124 0.0 2.0 0.00 0.00 0.00 79 1019.5
20260831012519 79 0 0.0 3.0 0.00 0.00 0.00 78 1019.4
20260831012019 79 0 0.0 4.0 0.00 0.00 0.00 78 1019.4
20260831011541 80 148 0.0 4.0 0.00 0.00 0.00 78 1019.4
20260831011024 80 215 1.0 9.0 0.00 0.00 0.00 77 1019.3
20260831010526 80 206 2.0 11.0 0.00 0.00 0.00 77 1019.3
20260831010043 80 275 2.0 11.0 0.00 0.00 0.00 77 1019.3
20260831005524 80 0 1.0 10.0 0.00 0.00 0.00 77 1019.1
20260831005019 80 168 1.0 10.0 0.00 0.00 0.00 77 1019.1
20260831004541 80 279 1.0 10.0 0.00 0.00 0.00 77 1019.0
20260831004022 80 184 0.0 4.0 0.00 0.00 0.00 78 1019.0
20260831003521 80 0 0.0 1.0 0.00 0.00 0.00 77 1018.9
20260831003048 80 0 0.0 2.0 0.00 0.00 0.00 77 1018.8
20260831002522 80 162 0.0 2.0 0.00 0.00 0.00 77 1018.9
20260831002022 80 0 0.0 2.0 0.00 0.00 0.00 77 1018.7
20260831001541 81 0 0.0 2.0 0.00 0.00 0.00 76 1018.6
20260831001022 81 0 0.0 1.0 0.00 0.00 0.00 76 1018.4
20260831000520 81 0 0.0 2.0 0.00 0.00 0.00 75 1018.4
20260831000055 81 0 0.0 2.0 0.00 0.00 0.00 76 1018.5
20260830235518 81 186 0.0 2.0 0.00 0.00 0.00 75 1018.4
20260830235027 81 0 0.0 2.0 0.00 0.00 0.00 75 1018.2
20260830234549 82 5 0.0 2.0 0.00 0.00 0.00 74 1018.2
20260830234027 82 0 0.0 2.0 0.00 0.00 0.00 73 1018.2
20260830233520 82 0 0.0 2.0 0.00 0.00 0.00 73 1018.3
20260830233042 83 0 0.0 1.0 0.00 0.00 0.00 72 1018.2
20260830232519 83 0 0.0 1.0 0.00 0.00 0.00 72 1018.2
20260830232026 83 0 0.0 2.0 0.00 0.00 0.00 71 1018.2
20260830231541 83 0 0.0 2.0 0.00 0.00 0.00 71 1018.3
20260830231019 84 5 0.0 2.0 0.00 0.00 0.00 70 1018.3
20260830230519 84 113 0.0 2.0 0.00 0.00 0.00 70 1018.2
20260830230041 85 0 0.0 2.0 0.00 0.00 0.00 69 1018.2
20260830225524 85 0 0.0 2.0 0.00 0.00 0.00 69 1018.3
20260830225020 85 0 0.0 2.0 0.00 0.00 0.00 68 1018.4
20260830224548 86 0 0.0 2.0 0.00 0.00 0.00 67 1018.4
20260830224023 86 236 0.0 3.0 0.00 0.00 0.00 66 1018.3
20260830223519 86 207 0.0 4.0 0.00 0.00 0.00 66 1018.2